Dewpoint
44 50 52 55 56 58 58 58 59 59 60 59 60 60 60 61 62 63 62 61 60 59 58 54 57 56 53 54 55 54 55 51 51 45 45 46 47 47 46 50 51 51 51
44 49 52 54 56 56 58 57 58 59 59 59 59 59 60 61 61 62 61 60 60 59 58 57 57 56 54 55 56 56 52 51 51 47 45 44 43 45 46 46 50 54 50
42 48 51 54 56 56 57 57 57 58 58 58 59 59 59 59 59 60 60 60 59 58 57 57 57 57 56 55 56 56 54 50 50 54 47 43 43 44 45 48 47 50 51
38 47 50 52 55 56 57 57 57 57 58 58 57 58 57 56 58 59 59 59 59 57 57 57 57 58 56 56 57 55 56 54 50 50 48 51 50 47 47 46 47 47 48
39 46 49 51 53 56 56 57 57 56 57 58 58 57 57 57 58 59 59 59 59 58 57 56 58 59 57 58 58 57 57 55 54 50 49 51 50 52 48 47 47 47 46
41 45 49 50 52 56 56 55 56 55 57 57 57 57 56 56 58 57 57 57 59 59 59 57 58 59 58 58 59 59 57 56 56 55 54 51 50 49 50 49 51 51 52
43 46 48 49 51 55 55 56 55 55 56 56 56 56 56 55 56 57 57 55 56 57 57 57 58 57 58 58 59 59 59 59 58 57 56 57 55 55 54 52 50 51 52
43 46 47 49 50 54 55 55 54 54 55 56 56 56 56 54 53 56 57 56 55 57 57 55 55 55 57 57 58 60 58 58 60 60 59 57 57 57 56 53 50 49 51
42 45 47 49 49 53 54 55 54 54 55 56 56 56 55 54 53 55 56 56 57 56 57 57 56 56 56 57 56 56 56 58 59 61 61 59 59 58 58 57 53 51 48
40 44 46 49 50 52 53 55 54 53 54 55 55 54 54 55 54 56 56 57 57 55 56 57 56 56 55 56 56 56 57 58 59 59 59 58 57 56 57 55 54 52 51
38 43 45 48 50 52 52 54 53 52 53 54 55 56 54 54 54 55 56 56 56 55 54 55 55 55 56 56 57 57 57 56 56 57 57 57 57 58 58 57 56 54 52
36 41 45 47 49 50 51 53 54 52 53 54 54 55 55 54 54 55 55 56 56 56 55 54 53 54 54 56 56 56 55 56 56 56 57 57 56 56 56 57 54 54 53
39 42 44 46 48 50 51 51 53 52 52 52 54 54 55 55 54 55 56 56 56 55 55 54 55 54 55 55 56 56 56 56 56 57 57 56 55 55 56 55 53 53 52
34 40 43 45 47 50 51 51 52 53 52 52 52 53 54 55 55 55 55 57 56 54 54 55 55 56 54 53 54 53 55 56 56 57 56 56 56 55 54 54 52 51 50
31 37 41 44 46 48 50 51 52 53 53 52 52 53 54 55 55 55 56 55 55 54 54 54 54 54 53 52 54 53 54 55 56 56 52 41 40 38 38 44 47 48 47
27 30 36 41 44 46 48 50 51 53 54 53 53 53 54 54 55 55 56 55 55 54 54 54 54 55 49 38 41 48 53 47 45 42 38 37 36 35 34 34 34 33 36
28 29 32 36 41 46 48 49 51 52 53 53 52 53 53 53 54 54 54 54 55 55 49 45 43 39 39 38 38 38 38 36 36 35 34 33 34 34 33 32 32 32 32
30 31 33 36 38 44 48 50 51 52 53 52 52 52 53 53 53 53 51 47 44 41 39 37 36 35 35 35 35 34 33 32 32 31 31 31 32 33 32 31 31 31 31
37 36 39 36 39 42 47 49 50 52 53 52 52 52 53 52 49 45 42 39 37 35 35 35 34 33 33 34 33 32 30 29 29 30 30 29 29 30 31 31 30 30 30
43 42 44 47 47 47 49 50 51 52 50 48 47 46 45 42 39 37 36 34 34 33 32 32 32 33 32 33 33 31 30 29 28 28 28 28 28 28 28 30 30 30 30
47 48 48 50 51 51 50 47 45 43 42 41 39 38 37 36 35 34 33 32 31 30 30 29 30 30 30 30 31 31 31 30 28 27 26 26 27 27 28 28 27 27 27
47 48 48 48 47 46 43 40 38 38 38 36 36 35 35 34 33 32 32 31 30 29 28 28 28 28 29 28 28 28 29 30 30 28 27 26 26 27 27 27 25 24 26
40 41 40 40 40 40 38 36 36 36 35 34 33 33 33 32 32 31 31 30 29 29 29 28 28 28 29 30 29 27 27 27 26 26 25 24 25 26 27 24 23 25 24
38 37 36 35 35 36 36 36 36 34 33 32 31 31 30 29 29 29 30 31 30 30 29 29 28 27 25 25 26 25 25 25 24 26 25 25 24 26 26 23 24 26 23
35 34 34 34 35 35 35 35 35 34 32 31 30 29 28 27 27 27 27 26 28 30 28 27 27 25 23 23 21 20 20 21 20 23 21 20 18 17 16 17 17 17 17
34 33 34 34 34 34 34 34 34 33 32 31 30 30 29 27 24 23 24 25 24 23 24 23 23 20 19 18 18 17 16 16 16 18 17 18 17 15 12 12 11 11 10
Lifted_Index
-1 -1 -1 -1 -0 0 1 1 1 2 2 2 2 2 3 3 3 2 2 2 3 4 4 4 4 4 4 4 4 4 4 4 4 5 5 6 6 6 6 4 3 3 3
-1 -1 -1 -0 -0 0 1 1 1 2 2 2 2 2 3 3 2 2 2 2 3 4 4 4 4 4 4 4 4 4 4 4 4 4 5 5 5 5 5 5 4 4 4
-0 -1 -0 -0 -0 0 0 1 1 2 2 2 2 2 2 2 2 2 2 2 3 4 5 4 4 4 4 4 4 3 4 4 4 4 4 4 3 4 4 4 4 4 4
-0 -1 -0 -0 0 0 0 1 1 2 2 2 2 2 2 2 2 2 2 3 4 4 4 4 4 3 3 3 3 3 3 3 4 4 4 3 3 3 3 3 4 4 4
-0 -1 -1 -0 0 0 1 1 1 2 2 2 2 2 2 2 2 2 3 3 4 4 4 4 3 3 3 3 3 3 3 3 3 3 4 3 3 3 3 3 3 3 4
-0 -1 -1 -0 0 1 1 1 1 2 2 2 2 2 2 2 2 2 3 3 3 3 3 3 3 2 2 2 2 2 2 2 2 2 3 3 2 2 2 2 2 3 3
-1 -1 -1 -0 0 1 1 1 2 2 2 2 2 2 2 2 2 3 3 3 3 3 3 3 3 3 2 2 2 2 2 2 1 1 1 1 1 1 2 2 2 3 3
-1 -1 -1 -1 -0 0 1 1 1 2 2 2 2 2 2 3 3 3 3 3 3 3 3 3 3 3 3 2 2 2 2 1 1 0 -0 -0 -0 0 1 1 2 3 3
-1 -1 -1 -1 -1 -0 0 0 1 1 2 2 2 2 2 3 3 3 3 2 2 2 2 3 3 3 3 2 2 2 2 1 1 -0 -1 -1 -1 -0 0 1 2 3 3
-1 -1 -2 -2 -1 -1 -0 0 0 1 1 1 2 2 2 2 3 3 2 2 2 2 2 3 3 3 2 2 2 2 1 1 0 -0 -0 -0 -0 -0 0 1 2 3 3
-1 -2 -2 -2 -2 -1 -1 -0 -0 0 0 1 1 1 2 2 2 2 2 2 2 2 2 2 2 2 2 2 1 1 1 1 0 -0 -0 -0 -0 0 1 2 2 2 2
-1 -2 -2 -2 -2 -2 -1 -1 -0 -0 0 0 0 1 1 1 1 1 1 1 1 2 2 2 2 2 2 1 1 1 0 0 0 -0 -0 0 0 1 1 1 2 2 2
-1 -2 -2 -3 -3 -2 -2 -1 -1 -0 -0 -0 -0 0 0 1 1 1 1 1 1 2 2 1 1 1 1 1 1 0 0 0 0 0 0 1 1 1 1 1 2 2 2
-1 -2 -2 -3 -3 -3 -3 -2 -1 -1 -0 -0 -0 -0 0 0 0 1 1 1 1 1 1 1 1 1 1 1 1 1 1 0 0 0 1 1 1 1 1 2 2 2 3
-1 -2 -2 -3 -3 -3 -3 -3 -2 -2 -1 -1 -1 -0 -0 -0 0 0 0 1 1 1 1 1 1 1 1 1 1 1 1 1 1 1 1 1 1 2 2 3 3 3 3
-1 -1 -2 -2 -3 -3 -3 -3 -3 -2 -2 -1 -1 -1 -1 -1 -0 -0 0 0 1 1 1 1 1 1 1 1 1 1 1 1 1 1 1 2 2 3 3 4 4 5 5
-1 -1 -1 -2 -2 -3 -3 -3 -3 -3 -3 -2 -2 -1 -1 -1 -1 -1 -0 0 0 0 1 1 1 1 1 1 1 0 1 1 1 2 2 3 4 4 5 5 6 7 7
-0 -0 -1 -1 -1 -2 -3 -4 -4 -4 -3 -3 -2 -2 -2 -2 -1 -1 -0 -0 0 0 0 0 1 1 1 1 1 1 1 2 3 4 4 5 6 7 8 8 9 10 10
0 -0 -0 -0 -1 -2 -3 -3 -4 -4 -3 -3 -3 -2 -2 -2 -1 -1 -1 -0 -0 0 0 1 1 1 1 2 2 3 3 4 5 6 8 9 10 11 11 11 11 12 12
0 0 -0 -0 -0 -1 -2 -3 -3 -3 -3 -3 -2 -2 -2 -2 -2 -1 -1 -1 0 1 1 1 2 3 4 5 6 6 6 6 7 9 11 12 13 13 14 14 13 13 14
1 1 0 0 0 0 -0 -1 -2 -2 -2 -1 -2 -2 -2 -2 -2 -1 -1 0 1 2 2 3 4 6 7 9 10 10 10 10 10 11 13 14 15 15 16 16 16 16 17
2 2 1 1 1 1 1 0 -0 -1 -1 -1 -1 -1 -1 -1 -0 0 1 2 2 3 4 4 6 8 10 12 13 14 14 13 13 14 15 16 17 18 19 19 20 20 21
2 2 2 2 2 2 1 1 0 0 -0 -0 0 0 1 1 2 3 3 4 5 5 5 6 7 9 12 14 15 16 16 16 16 17 18 20 20 21 22 22 22 23 23
2 2 2 2 2 1 1 1 1 1 1 1 2 3 3 4 5 5 6 7 8 8 8 8 9 11 13 15 16 17 18 19 20 21 22 22 23 23 23 24 24 25 25
1 1 1 1 2 2 2 3 3 3 3 3 4 6 6 7 8 8 9 11 12 12 12 12 13 14 15 17 19 20 21 22 23 23 23 24 24 25 25 26 26 26 27
1 1 1 1 2 3 3 4 5 5 4 5 6 7 8 9 10 10 11 13 15 15 16 16 16 17 18 19 21 22 23 24 24 24 24 24 25 26 27 27 27 28 28